COSMOS 2545 (760)

Last updated on Wed Oct 29 2025 00:03:19 GMT+0000 (Coordinated Universal Time)

1 45358U 20018A 25300.94090488 -.00000016 00000+0 00000+0 0 9994 2 45358 64.4949 320.5771 0012382 243.7702 116.1502 2.13102591 43714
UTC large
Height (km)
Speed (km/s)
/
Latitude / Longitude
Inclination (degrees)
Orbital Period (minutes)
Azimuth
Elevation
Range (km)
Doppler Factor

Next 0 passes for location: London (51.5072 / 0.1276)

Sorry there are no passes over London.